This is the latest recevied weather packets stored in our database for station/object DL1GHN-6. If no packets are shown the sender has not sent any weather packets the latest 10 day(s).
| Time | Temp. | Humidity | Pressure | Rain* | Wind** | Luminosity | Snow |
|---|---|---|---|---|---|---|---|
| 1777822521 | 22.22° C | 35% | 1013.6 hPa | 0 mm | - | 172 W/m² | - |
| 1777822222 | 22.22° C | 35% | 1013.5 hPa | 0 mm | - | 179 W/m² | - |
| 1777821921 | 22.22° C | 35% | 1013.5 hPa | 0 mm | - | 176 W/m² | - |
| 1777821621 | 22.78° C | 34% | 1013.4 hPa | 0 mm | - | 174 W/m² | - |
| 1777821320 | 22.78° C | 33% | 1013.3 hPa | 0 mm | - | 169 W/m² | - |
| 1777821021 | 23.33° C | 31% | 1013.3 hPa | 0 mm | - | 167 W/m² | - |
| 1777820720 | 23.33° C | 30% | 1013.2 hPa | 0 mm | - | 158 W/m² | - |
| 1777820422 | 23.89° C | 30% | 1013.1 hPa | 0 mm | - | 148 W/m² | - |
| 1777820120 | 23.89° C | 28% | 1013 hPa | 0 mm | - | 144 W/m² | - |
| 1777819821 | 24.44° C | 27% | 1013 hPa | 0 mm | - | 139 W/m² | - |
| 1777819521 | 24.44° C | 28% | 1012.9 hPa | 0 mm | - | 162 W/m² | - |
| 1777819222 | 25° C | 27% | 1012.8 hPa | 0 mm | - | 207 W/m² | - |
| 1777818922 | 25° C | 28% | 1012.7 hPa | 0 mm | - | 265 W/m² | - |
| 1777818622 | 25° C | 32% | 1012.6 hPa | 0 mm | - | 297 W/m² | - |
| 1777818321 | 25.56° C | 35% | 1012.6 hPa | 0 mm | - | 246 W/m² | - |
| 1777818022 | 25° C | 34% | 1012.6 hPa | 0 mm | - | 350 W/m² | - |
| 1777817721 | 25° C | 37% | 1012.7 hPa | 0 mm | - | 253 W/m² | - |
| 1777817422 | 25° C | 36% | 1012.6 hPa | 0 mm | - | 327 W/m² | - |
| 1777817122 | 25.56° C | 33% | 1012.7 hPa | 0 mm | - | 332 W/m² | - |
| 1777816821 | 25.56° C | 36% | 1012.6 hPa | 0 mm | - | 315 W/m² | - |
| 1777816522 | 25° C | 33% | 1012.6 hPa | 0 mm | - | 290 W/m² | - |
| 1777816220 | 25.56° C | 34% | 1012.6 hPa | 0 mm | - | 301 W/m² | - |
| 1777815922 | 25.56° C | 35% | 1012.7 hPa | 0 mm | - | 318 W/m² | - |
| 1777815621 | 25.56° C | 35% | 1012.8 hPa | 0 mm | - | 313 W/m² | - |
| 1777815321 | 25.56° C | 34% | 1012.8 hPa | 0 mm | - | 329 W/m² | - |
* Rain latest hour (hover to see other rain measurements)
** Current wind speed in m/s (hover to see current wind gust speed)